Вернуться в каталог

COSMOS 2251 DEB

LostLEO
NORAD 37315·DEBRIS·🇷🇺 Russia

Запущен Jun 16, 1993 с Plesetsk Cosmodrome

Loading…

Ближайшие Пролёты (ближайшие 24 часа)

TLE

УстаревшееSource: Space-Track

Эпоха: Sep 5, 2016, 22:23 UTC

1 37315U 93036BKF 16249.93329128  .00000583  00000-0  18053-3 0  9995
2 37315  74.0251 335.6020 0016247 180.7077 179.4590 14.41113040445668

Отслеживайте COSMOS 2251 DEB в реальном времени с AllMySat

Download on the App Store